| time (UTC) | temp F | wind direction | speed MPH | gust MPH | rain 1hr in | rain 24hr in | rain mn in | humidity % | barometer mb |
| 20260510170528 | 69 | 232 | 6.0 | 12.0 | 0.00 | 0.25 | 0.00 | 66 | 1012.4 |
| 20260510170026 | 69 | 245 | 4.0 | 9.0 | 0.00 | 0.25 | 0.00 | 67 | 1012.4 |
| 20260510165525 | 68 | 125 | 2.0 | 10.0 | 0.00 | 0.31 | 0.00 | 67 | 1012.4 |
| 20260510165023 | 67 | 130 | 1.0 | 9.0 | 0.00 | 0.31 | 0.00 | 69 | 1012.5 |
| 20260510164523 | 65 | 224 | 3.0 | 8.0 | 0.00 | 0.31 | 0.00 | 72 | 1012.5 |
| 20260510164023 | 65 | 173 | 5.0 | 9.0 | 0.00 | 0.31 | 0.00 | 73 | 1012.4 |
| 20260510163523 | 66 | 217 | 4.0 | 7.0 | 0.00 | 0.31 | 0.00 | 70 | 1012.5 |
| 20260510163026 | 66 | 265 | 1.0 | 9.0 | 0.00 | 0.31 | 0.00 | 74 | 1012.5 |
| 20260510162522 | 66 | 169 | 4.0 | 9.0 | 0.00 | 0.31 | 0.00 | 71 | 1012.5 |
| 20260510162021 | 66 | 186 | 3.0 | 8.0 | 0.00 | 0.31 | 0.00 | 71 | 1012.5 |
| 20260510161521 | 66 | 209 | 4.0 | 8.0 | 0.00 | 0.31 | 0.00 | 70 | 1012.5 |
| 20260510161021 | 67 | 134 | 1.0 | 8.0 | 0.00 | 0.31 | 0.00 | 71 | 1012.6 |
| 20260510160520 | 67 | 150 | 0.0 | 8.0 | 0.00 | 0.31 | 0.00 | 73 | 1012.7 |
| 20260510160025 | 65 | 135 | 3.0 | 9.0 | 0.00 | 0.31 | 0.00 | 72 | 1012.6 |
| 20260510155522 | 65 | 73 | 2.0 | 9.0 | 0.00 | 0.34 | 0.00 | 74 | 1012.6 |
| 20260510155018 | 66 | 172 | 3.0 | 7.0 | 0.00 | 0.34 | 0.00 | 73 | 1012.7 |
| 20260510154618 | 66 | 333 | 1.0 | 6.0 | 0.00 | 0.34 | 0.00 | 73 | 1012.7 |
| 20260510154018 | 66 | 238 | 3.0 | 8.0 | 0.00 | 0.34 | 0.00 | 72 | 1012.7 |
| 20260510153516 | 66 | 176 | 1.0 | 8.0 | 0.00 | 0.34 | 0.00 | 72 | 1012.8 |
| 20260510153015 | 65 | 160 | 1.0 | 5.0 | 0.00 | 0.34 | 0.00 | 76 | 1012.7 |
| 20260510152514 | 64 | 134 | 2.0 | 5.0 | 0.00 | 0.34 | 0.00 | 76 | 1012.7 |
| 20260510152013 | 63 | 226 | 1.0 | 5.0 | 0.00 | 0.34 | 0.00 | 74 | 1012.7 |
| 20260510151513 | 63 | 201 | 1.0 | 6.0 | 0.00 | 0.34 | 0.00 | 75 | 1012.8 |
| 20260510151012 | 63 | 124 | 2.0 | 6.0 | 0.00 | 0.34 | 0.00 | 76 | 1012.8 |
| 20260510150513 | 63 | 239 | 2.0 | 6.0 | 0.00 | 0.34 | 0.00 | 76 | 1012.9 |
| 20260510150018 | 63 | 168 | 2.0 | 10.0 | 0.00 | 0.34 | 0.00 | 75 | 1012.9 |
| 20260510145510 | 63 | 231 | 3.0 | 10.0 | 0.00 | 0.37 | 0.00 | 77 | 1012.8 |
| 20260510145009 | 63 | 174 | 2.0 | 8.0 | 0.00 | 0.37 | 0.00 | 78 | 1012.9 |
| 20260510144518 | 61 | 168 | 1.0 | 7.0 | 0.00 | 0.37 | 0.00 | 78 | 1012.9 |
| 20260510144009 | 62 | 193 | 2.0 | 6.0 | 0.00 | 0.37 | 0.00 | 78 | 1013.0 |
| 20260510143507 | 62 | 206 | 1.0 | 5.0 | 0.00 | 0.37 | 0.00 | 81 | 1013.0 |
| 20260510143014 | 60 | 206 | 2.0 | 9.0 | 0.00 | 0.37 | 0.00 | 79 | 1012.9 |
| 20260510142506 | 61 | 220 | 1.0 | 9.0 | 0.00 | 0.37 | 0.00 | 78 | 1012.9 |
| 20260510142006 | 61 | 256 | 1.0 | 7.0 | 0.00 | 0.37 | 0.00 | 81 | 1013.0 |
| 20260510141507 | 60 | 145 | 0.0 | 7.0 | 0.00 | 0.37 | 0.00 | 82 | 1013.1 |
| 20260510141001 | 59 | 226 | 1.0 | 6.0 | 0.00 | 0.37 | 0.00 | 84 | 1013.1 |
| 20260510140500 | 59 | 216 | 3.0 | 7.0 | 0.00 | 0.37 | 0.00 | 86 | 1013.3 |
| 20260510140100 | 58 | 246 | 1.0 | 5.0 | 0.00 | 0.37 | 0.00 | 88 | 1013.2 |
| 20260510135600 | 57 | 247 | 2.0 | 6.0 | 0.00 | 0.37 | 0.00 | 88 | 1013.1 |
| 20260510135059 | 56 | 220 | 2.0 | 6.0 | 0.00 | 0.37 | 0.00 | 89 | 1013.2 |
| 20260510134605 | 56 | 137 | 2.0 | 6.0 | 0.00 | 0.37 | 0.00 | 90 | 1013.3 |
| 20260510134055 | 55 | 216 | 2.0 | 6.0 | 0.00 | 0.37 | 0.00 | 91 | 1013.4 |
| 20260510133558 | 54 | 220 | 2.0 | 7.0 | 0.00 | 0.37 | 0.00 | 91 | 1013.3 |
| 20260510133053 | 54 | 220 | 2.0 | 7.0 | 0.00 | 0.37 | 0.00 | 92 | 1013.3 |
| 20260510132555 | 54 | 226 | 1.0 | 7.0 | 0.00 | 0.37 | 0.00 | 92 | 1013.2 |
| 20260510132052 | 54 | 220 | 3.0 | 6.0 | 0.00 | 0.37 | 0.00 | 92 | 1013.4 |
| 20260510131551 | 54 | 219 | 3.0 | 6.0 | 0.00 | 0.37 | 0.00 | 92 | 1013.1 |
| 20260510131050 | 53 | 216 | 2.0 | 8.0 | 0.00 | 0.37 | 0.00 | 92 | 1013.2 |
| 20260510130550 | 53 | 241 | 3.0 | 8.0 | 0.00 | 0.37 | 0.00 | 92 | 1013.3 |
| 20260510130050 | 53 | 234 | 4.0 | 9.0 | 0.00 | 0.37 | 0.00 | 93 | 1013.3 |
| 20260510125549 | 53 | 337 | 3.0 | 12.0 | 0.00 | 0.37 | 0.00 | 93 | 1013.3 |
| 20260510125048 | 53 | 236 | 4.0 | 12.0 | 0.00 | 0.37 | 0.00 | 93 | 1013.2 |
| 20260510124556 | 53 | 217 | 2.0 | 6.0 | 0.00 | 0.37 | 0.00 | 93 | 1013.2 |
| 20260510124049 | 53 | 213 | 1.0 | 5.0 | 0.00 | 0.37 | 0.00 | 93 | 1013.2 |
| 20260510123547 | 53 | 209 | 3.0 | 5.0 | 0.00 | 0.37 | 0.00 | 93 | 1013.2 |
| 20260510123047 | 53 | 208 | 1.0 | 5.0 | 0.00 | 0.37 | 0.00 | 93 | 1013.1 |
| 20260510122546 | 53 | 211 | 1.0 | 5.0 | 0.00 | 0.37 | 0.00 | 93 | 1013.1 |
| 20260510122046 | 53 | 201 | 2.0 | 6.0 | 0.00 | 0.37 | 0.00 | 94 | 1013.1 |
| 20260510121545 | 53 | 208 | 2.0 | 6.0 | 0.00 | 0.37 | 0.00 | 94 | 1013.0 |
| 20260510121046 | 52 | 245 | 3.0 | 6.0 | 0.00 | 0.37 | 0.00 | 94 | 1013.1 |
| 20260510120543 | 52 | 239 | 2.0 | 8.0 | 0.00 | 0.37 | 0.00 | 94 | 1013.0 |
| 20260510120043 | 52 | 228 | 3.0 | 8.0 | 0.00 | 0.37 | 0.00 | 94 | 1012.9 |
| 20260510115542 | 52 | 225 | 2.0 | 6.0 | 0.00 | 0.37 | 0.00 | 94 | 1012.9 |
| 20260510115042 | 52 | 225 | 1.0 | 5.0 | 0.00 | 0.37 | 0.00 | 93 | 1012.6 |
| 20260510114544 | 52 | 149 | 1.0 | 5.0 | 0.00 | 0.37 | 0.00 | 94 | 1012.8 |
| 20260510114041 | 52 | 194 | 1.0 | 7.0 | 0.00 | 0.37 | 0.00 | 94 | 1013.1 |
| 20260510113539 | 52 | 241 | 2.0 | 7.0 | 0.00 | 0.37 | 0.00 | 94 | 1013.2 |
| 20260510113040 | 51 | 209 | 1.0 | 5.0 | 0.00 | 0.37 | 0.00 | 94 | 1013.1 |
| 20260510112538 | 51 | 216 | 3.0 | 5.0 | 0.00 | 0.37 | 0.00 | 94 | 1013.2 |
| 20260510112037 | 51 | 198 | 1.0 | 4.0 | 0.00 | 0.37 | 0.00 | 94 | 1013.0 |
| 20260510111535 | 51 | 199 | 0.0 | 4.0 | 0.00 | 0.37 | 0.00 | 94 | 1012.7 |
| 20260510111035 | 51 | 203 | 1.0 | 4.0 | 0.00 | 0.37 | 0.00 | 94 | 1012.6 |
| 20260510110534 | 51 | 204 | 0.0 | 5.0 | 0.00 | 0.37 | 0.00 | 94 | 1012.4 |
| 20260510110034 | 51 | 204 | 2.0 | 7.0 | 0.00 | 0.37 | 0.00 | 94 | 1012.7 |
| 20260510105534 | 51 | 175 | 2.0 | 7.0 | 0.00 | 0.37 | 0.00 | 94 | 1012.6 |
| 20260510105033 | 50 | 136 | 0.0 | 5.0 | 0.00 | 0.37 | 0.00 | 94 | 1012.6 |
| 20260510104535 | 50 | 156 | 1.0 | 6.0 | 0.00 | 0.37 | 0.00 | 94 | 1012.3 |
| 20260510104031 | 50 | 168 | 2.0 | 6.0 | 0.00 | 0.37 | 0.00 | 94 | 1012.2 |
| 20260510103531 | 50 | 127 | 1.0 | 5.0 | 0.00 | 0.37 | 0.00 | 94 | 1012.5 |
| 20260510103029 | 50 | 191 | 0.0 | 5.0 | 0.00 | 0.37 | 0.00 | 94 | 1012.6 |
| 20260510102528 | 50 | 193 | 2.0 | 5.0 | 0.00 | 0.37 | 0.00 | 93 | 1012.5 |
| 20260510102028 | 50 | 185 | 1.0 | 5.0 | 0.00 | 0.37 | 0.00 | 93 | 1012.5 |
| 20260510101526 | 50 | 139 | 0.0 | 3.0 | 0.00 | 0.37 | 0.00 | 94 | 1012.7 |
| 20260510101026 | 50 | 139 | 1.0 | 3.0 | 0.00 | 0.37 | 0.00 | 93 | 1012.7 |
| 20260510100524 | 50 | 139 | 0.0 | 3.0 | 0.00 | 0.37 | 0.00 | 94 | 1012.5 |
| 20260510100023 | 50 | 139 | 1.0 | 4.0 | 0.00 | 0.37 | 0.00 | 93 | 1012.6 |
| 20260510095522 | 50 | 196 | 1.0 | 4.0 | 0.00 | 0.37 | 0.00 | 93 | 1012.6 |
| 20260510095020 | 49 | 197 | 1.0 | 5.0 | 0.00 | 0.37 | 0.00 | 93 | 1012.6 |
| 20260510094533 | 49 | 225 | 3.0 | 5.0 | 0.00 | 0.37 | 0.00 | 93 | 1012.7 |
| 20260510094017 | 49 | 199 | 1.0 | 5.0 | 0.00 | 0.37 | 0.00 | 94 | 1012.5 |
| 20260510093515 | 49 | 185 | 0.0 | 6.0 | 0.00 | 0.37 | 0.00 | 94 | 1012.5 |
| 20260510093015 | 49 | 218 | 3.0 | 6.0 | 0.00 | 0.37 | 0.00 | 94 | 1012.4 |
| 20260510092514 | 49 | 174 | 1.0 | 6.0 | 0.00 | 0.37 | 0.00 | 94 | 1012.3 |
| 20260510092012 | 49 | 224 | 1.0 | 6.0 | 0.00 | 0.37 | 0.00 | 94 | 1012.3 |
| 20260510091513 | 49 | 224 | 2.0 | 4.0 | 0.00 | 0.37 | 0.00 | 94 | 1012.3 |
| 20260510091012 | 49 | 224 | 0.0 | 2.0 | 0.00 | 0.37 | 0.00 | 94 | 1012.4 |
| 20260510090512 | 49 | 223 | 1.0 | 6.0 | 0.00 | 0.37 | 0.00 | 94 | 1012.3 |
| 20260510090012 | 49 | 224 | 2.0 | 6.0 | 0.00 | 0.37 | 0.00 | 94 | 1012.3 |
| 20260510085512 | 49 | 223 | 1.0 | 4.0 | 0.00 | 0.37 | 0.00 | 94 | 1012.5 |
| 20260510085011 | 49 | 224 | 2.0 | 4.0 | 0.00 | 0.37 | 0.00 | 94 | 1012.3 |
| 20260510084511 | 49 | 224 | 2.0 | 6.0 | 0.00 | 0.37 | 0.00 | 94 | 1012.1 |
| 20260510084010 | 48 | 251 | 1.0 | 6.0 | 0.00 | 0.37 | 0.00 | 93 | 1012.2 |
| 20260510083508 | 48 | 77 | 0.0 | 2.0 | 0.00 | 0.37 | 0.00 | 93 | 1012.2 |
| 20260510083008 | 48 | 78 | 0.0 | 2.0 | 0.00 | 0.37 | 0.00 | 94 | 1012.2 |
| 20260510082507 | 48 | 77 | 0.0 | 2.0 | 0.00 | 0.37 | 0.00 | 93 | 1012.2 |
| 20260510082007 | 48 | 77 | 0.0 | 2.0 | 0.00 | 0.37 | 0.00 | 93 | 1012.0 |
| 20260510081514 | 47 | 77 | 0.0 | 1.0 | 0.00 | 0.37 | 0.00 | 93 | 1012.1 |
| 20260510081005 | 47 | 78 | 0.0 | 1.0 | 0.00 | 0.37 | 0.00 | 93 | 1012.0 |
| 20260510080504 | 47 | 77 | 0.0 | 0.0 | 0.00 | 0.37 | 0.00 | 93 | 1012.1 |
| 20260510080004 | 47 | 78 | 0.0 | 1.0 | 0.00 | 0.37 | 0.00 | 93 | 1012.1 |
| 20260510075503 | 47 | 77 | 0.0 | 1.0 | 0.00 | 0.37 | 0.00 | 93 | 1011.9 |
| 20260510075003 | 47 | 78 | 0.0 | 2.0 | 0.00 | 0.37 | 0.00 | 93 | 1011.9 |
| 20260510074504 | 47 | 78 | 0.0 | 2.0 | 0.00 | 0.37 | 0.00 | 93 | 1012.0 |
| 20260510074003 | 47 | 77 | 0.0 | 2.0 | 0.00 | 0.37 | 0.00 | 93 | 1011.9 |
| 20260510073502 | 47 | 78 | 0.0 | 2.0 | 0.00 | 0.37 | 0.00 | 93 | 1011.8 |
| 20260510073002 | 47 | 78 | 0.0 | 0.0 | 0.00 | 0.37 | 0.00 | 93 | 1011.7 |
| 20260510072502 | 47 | 78 | 0.0 | 0.0 | 0.00 | 0.37 | 0.00 | 93 | 1011.6 |
| 20260510072003 | 47 | 78 | 0.0 | 0.0 | 0.00 | 0.37 | 0.00 | 93 | 1011.7 |
| 20260510071501 | 47 | 77 | 0.0 | 0.0 | 0.00 | 0.37 | 0.00 | 93 | 1011.7 |
| 20260510071002 | 47 | 77 | 0.0 | 0.0 | 0.00 | 0.37 | 0.00 | 93 | 1011.6 |
| 20260510070501 | 47 | 77 | 0.0 | 0.0 | 0.00 | 0.37 | 0.00 | 93 | 1011.7 |
| 20260510070001 | 47 | 77 | 0.0 | 1.0 | 0.00 | 0.37 | 0.00 | 93 | 1011.8 |
| 20260510065501 | 47 | 78 | 0.0 | 1.0 | 0.00 | 0.37 | 0.00 | 93 | 1011.5 |
| 20260510065100 | 47 | 77 | 0.0 | 1.0 | 0.00 | 0.37 | 0.00 | 93 | 1011.5 |
| 20260510064600 | 47 | 77 | 0.0 | 2.0 | 0.00 | 0.37 | 0.00 | 93 | 1011.5 |
| 20260510064059 | 47 | 77 | 1.0 | 2.0 | 0.00 | 0.37 | 0.00 | 93 | 1011.5 |
| 20260510063558 | 47 | 78 | 0.0 | 0.0 | 0.00 | 0.37 | 0.00 | 93 | 1011.7 |
| 20260510063105 | 47 | 78 | 0.0 | 0.0 | 0.00 | 0.37 | 0.00 | 93 | 1011.8 |
| 20260510062559 | 47 | 77 | 0.0 | 0.0 | 0.00 | 0.37 | 0.00 | 93 | 1011.7 |
| 20260510062059 | 47 | 77 | 0.0 | 0.0 | 0.00 | 0.37 | 0.00 | 93 | 1011.7 |
| 20260510061605 | 47 | 78 | 0.0 | 0.0 | 0.00 | 0.37 | 0.00 | 93 | 1011.5 |
| 20260510061059 | 47 | 78 | 0.0 | 0.0 | 0.00 | 0.37 | 0.00 | 93 | 1011.8 |
| 20260510060556 | 47 | 78 | 0.0 | 0.0 | 0.00 | 0.37 | 0.00 | 93 | 1011.8 |
| 20260510060056 | 47 | 78 | 0.0 | 0.0 | 0.00 | 0.37 | 0.00 | 93 | 1011.7 |
| 20260510055554 | 47 | 78 | 0.0 | 0.0 | 0.00 | 0.37 | 0.00 | 93 | 1011.8 |
| 20260510055053 | 47 | 78 | 0.0 | 0.0 | 0.00 | 0.37 | 0.00 | 93 | 1012.0 |
| 20260510054600 | 48 | 77 | 0.0 | 0.0 | 0.00 | 0.37 | 0.00 | 93 | 1012.2 |
| 20260510054050 | 47 | 77 | 0.0 | 0.0 | 0.00 | 0.37 | 0.00 | 93 | 1012.3 |
| 20260510053549 | 47 | 78 | 0.0 | 0.0 | 0.00 | 0.37 | 0.00 | 93 | 1012.4 |
| 20260510053049 | 47 | 78 | 0.0 | 0.0 | 0.00 | 0.37 | 0.00 | 93 | 1012.5 |
| 20260510052548 | 47 | 78 | 0.0 | 0.0 | 0.00 | 0.37 | 0.00 | 93 | 1012.4 |
| 20260510052049 | 47 | 77 | 0.0 | 1.0 | 0.00 | 0.37 | 0.00 | 93 | 1012.3 |
| 20260510051549 | 47 | 77 | 0.0 | 1.0 | 0.00 | 0.37 | 0.00 | 93 | 1012.2 |
| 20260510051053 | 47 | 78 | 0.0 | 0.0 | 0.00 | 0.37 | 0.00 | 93 | 1012.4 |
| 20260510050547 | 47 | 77 | 0.0 | 0.0 | 0.00 | 0.37 | 0.00 | 93 | 1012.4 |
| 20260510050053 | 47 | 78 | 0.0 | 1.0 | 0.00 | 0.37 | 0.00 | 93 | 1012.4 |
| 20260510045548 | 47 | 78 | 0.0 | 1.0 | 0.00 | 0.37 | 0.00 | 93 | 1012.5 |
| 20260510045048 | 47 | 78 | 0.0 | 0.0 | 0.00 | 0.37 | 0.00 | 93 | 1012.4 |
| 20260510044549 | 47 | 77 | 0.0 | 0.0 | 0.00 | 0.37 | 0.00 | 93 | 1012.4 |
| 20260510044047 | 47 | 79 | 0.0 | 0.0 | 0.00 | 0.37 | 0.00 | 93 | 1012.3 |
| 20260510043547 | 47 | 77 | 0.0 | 0.0 | 0.00 | 0.37 | 0.00 | 93 | 1012.4 |
| 20260510043046 | 47 | 77 | 0.0 | 0.0 | 0.00 | 0.37 | 0.00 | 93 | 1012.4 |
| 20260510042549 | 47 | 78 | 0.0 | 0.0 | 0.00 | 0.37 | 0.00 | 93 | 1012.3 |
| 20260510042046 | 47 | 77 | 0.0 | 3.0 | 0.00 | 0.37 | 0.00 | 93 | 1012.2 |
| 20260510041601 | 47 | 78 | 0.0 | 3.0 | 0.00 | 0.37 | 0.00 | 93 | 1012.2 |
| 20260510041044 | 47 | 78 | 0.0 | 2.0 | 0.00 | 0.37 | 0.00 | 93 | 1012.1 |
| 20260510040547 | 47 | 78 | 1.0 | 2.0 | 0.00 | 0.37 | 0.00 | 93 | 1012.4 |
| 20260510040042 | 47 | 78 | 0.0 | 0.0 | 0.00 | 0.37 | 0.00 | 93 | 1012.7 |
| 20260510035541 | 47 | 77 | 0.0 | 0.0 | 0.00 | 0.37 | 0.37 | 93 | 1012.7 |
| 20260510035041 | 47 | 78 | 0.0 | 0.0 | 0.00 | 0.37 | 0.37 | 93 | 1012.6 |
| 20260510034547 | 47 | 78 | 0.0 | 2.0 | 0.00 | 0.37 | 0.37 | 93 | 1012.4 |
| 20260510034041 | 47 | 78 | 0.0 | 2.0 | 0.00 | 0.37 | 0.37 | 93 | 1012.5 |
| 20260510033539 | 47 | 77 | 0.0 | 1.0 | 0.00 | 0.37 | 0.37 | 93 | 1012.6 |
| 20260510033046 | 47 | 77 | 0.0 | 2.0 | 0.00 | 0.37 | 0.37 | 93 | 1012.7 |
| 20260510032540 | 47 | 78 | 0.0 | 2.0 | 0.00 | 0.37 | 0.37 | 93 | 1012.7 |
| 20260510032040 | 47 | 77 | 0.0 | 2.0 | 0.00 | 0.37 | 0.37 | 93 | 1012.8 |
| 20260510031550 | 47 | 78 | 0.0 | 0.0 | 0.00 | 0.37 | 0.37 | 93 | 1013.0 |
| 20260510031044 | 47 | 78 | 0.0 | 1.0 | 0.00 | 0.37 | 0.37 | 93 | 1012.9 |
| 20260510030539 | 47 | 78 | 0.0 | 0.0 | 0.00 | 0.37 | 0.37 | 93 | 1013.1 |
| 20260510030039 | 47 | 78 | 0.0 | 1.0 | 0.00 | 0.37 | 0.37 | 93 | 1013.0 |
| 20260510025539 | 47 | 77 | 0.0 | 1.0 | 0.00 | 0.37 | 0.37 | 93 | 1013.0 |
| 20260510025039 | 47 | 78 | 0.0 | 2.0 | 0.00 | 0.37 | 0.37 | 93 | 1013.1 |
| 20260510024553 | 47 | 78 | 0.0 | 1.0 | 0.00 | 0.37 | 0.37 | 93 | 1013.1 |
| 20260510024038 | 47 | 78 | 0.0 | 1.0 | 0.00 | 0.37 | 0.37 | 93 | 1013.1 |
| 20260510023538 | 47 | 78 | 0.0 | 1.0 | 0.00 | 0.37 | 0.37 | 93 | 1013.2 |
| 20260510023038 | 47 | 78 | 0.0 | 0.0 | 0.00 | 0.37 | 0.37 | 93 | 1013.2 |
| 20260510022538 | 47 | 78 | 0.0 | 0.0 | 0.00 | 0.37 | 0.37 | 93 | 1013.3 |
| 20260510022038 | 47 | 78 | 0.0 | 0.0 | 0.00 | 0.37 | 0.37 | 93 | 1013.3 |
| 20260510021538 | 47 | 77 | 0.0 | 2.0 | 0.00 | 0.37 | 0.37 | 93 | 1013.3 |
| 20260510021038 | 46 | 77 | 0.0 | 2.0 | 0.00 | 0.37 | 0.37 | 93 | 1013.3 |
| 20260510020538 | 47 | 78 | 0.0 | 1.0 | 0.00 | 0.37 | 0.37 | 93 | 1013.4 |
| 20260510020038 | 46 | 78 | 0.0 | 1.0 | 0.00 | 0.37 | 0.37 | 93 | 1013.5 |
| 20260510015539 | 46 | 77 | 0.0 | 1.0 | 0.00 | 0.37 | 0.37 | 93 | 1013.5 |
| 20260510015038 | 46 | 78 | 0.0 | 1.0 | 0.00 | 0.37 | 0.37 | 93 | 1013.5 |
| 20260510014537 | 46 | 78 | 0.0 | 1.0 | 0.00 | 0.37 | 0.37 | 93 | 1013.4 |
| 20260510014037 | 46 | 78 | 0.0 | 1.0 | 0.00 | 0.37 | 0.37 | 93 | 1013.5 |
| 20260510013540 | 46 | 78 | 0.0 | 2.0 | 0.00 | 0.37 | 0.37 | 92 | 1013.5 |
| 20260510013046 | 46 | 77 | 0.0 | 2.0 | 0.01 | 0.37 | 0.37 | 92 | 1013.5 |
| 20260510012538 | 46 | 77 | 0.0 | 2.0 | 0.01 | 0.37 | 0.37 | 92 | 1013.5 |
| 20260510012036 | 46 | 78 | 0.0 | 2.0 | 0.01 | 0.37 | 0.37 | 92 | 1013.6 |
| 20260510011536 | 46 | 77 | 0.0 | 2.0 | 0.01 | 0.37 | 0.37 | 92 | 1013.6 |
| 20260510011035 | 46 | 77 | 0.0 | 3.0 | 0.01 | 0.37 | 0.37 | 92 | 1013.5 |
| 20260510010535 | 46 | 78 | 0.0 | 3.0 | 0.01 | 0.37 | 0.37 | 92 | 1013.4 |
| 20260510010036 | 46 | 77 | 0.0 | 4.0 | 0.01 | 0.37 | 0.37 | 92 | 1013.4 |
| 20260510005536 | 46 | 78 | 0.0 | 4.0 | 0.01 | 0.37 | 0.37 | 92 | 1013.3 |
| 20260510005035 | 46 | 78 | 0.0 | 2.0 | 0.01 | 0.37 | 0.37 | 92 | 1013.4 |
| 20260510004543 | 46 | 78 | 0.0 | 3.0 | 0.02 | 0.37 | 0.37 | 92 | 1013.4 |
| 20260510004035 | 46 | 78 | 0.0 | 3.0 | 0.02 | 0.37 | 0.37 | 92 | 1013.4 |
| 20260510003535 | 46 | 77 | 0.0 | 1.0 | 0.03 | 0.37 | 0.37 | 92 | 1013.6 |
| 20260510003035 | 46 | 78 | 0.0 | 2.0 | 0.02 | 0.36 | 0.36 | 92 | 1013.6 |
| 20260510002534 | 46 | 78 | 0.0 | 3.0 | 0.03 | 0.36 | 0.36 | 92 | 1013.4 |
| 20260510002034 | 46 | 77 | 0.0 | 3.0 | 0.03 | 0.36 | 0.36 | 92 | 1013.5 |
| 20260510001534 | 46 | 77 | 0.0 | 3.0 | 0.03 | 0.36 | 0.36 | 92 | 1013.4 |
| 20260510001034 | 45 | 78 | 1.0 | 3.0 | 0.04 | 0.36 | 0.36 | 92 | 1013.4 |
| 20260510000533 | 45 | 78 | 1.0 | 7.0 | 0.04 | 0.36 | 0.36 | 92 | 1013.5 |
| 20260510000035 | 45 | 87 | 1.0 | 7.0 | 0.04 | 0.36 | 0.36 | 92 | 1013.4 |
| 20260509235534 | 45 | 81 | 3.0 | 5.0 | 0.05 | 0.36 | 0.36 | 92 | 1013.3 |
| 20260509235036 | 46 | 78 | 2.0 | 4.0 | 0.05 | 0.36 | 0.36 | 92 | 1013.4 |
| 20260509234535 | 46 | 77 | 1.0 | 4.0 | 0.04 | 0.35 | 0.35 | 92 | 1013.5 |
| 20260509234034 | 45 | 77 | 0.0 | 3.0 | 0.04 | 0.35 | 0.35 | 92 | 1013.5 |
| 20260509233533 | 45 | 77 | 1.0 | 6.0 | 0.03 | 0.34 | 0.34 | 92 | 1013.4 |
| 20260509233034 | 45 | 77 | 1.0 | 6.0 | 0.04 | 0.34 | 0.34 | 92 | 1013.3 |
| 20260509232534 | 45 | 88 | 2.0 | 6.0 | 0.03 | 0.33 | 0.33 | 92 | 1013.2 |
| 20260509232033 | 46 | 93 | 1.0 | 6.0 | 0.03 | 0.33 | 0.33 | 92 | 1013.1 |
| 20260509231534 | 46 | 96 | 2.0 | 7.0 | 0.03 | 0.33 | 0.33 | 92 | 1013.0 |
| 20260509231034 | 46 | 87 | 1.0 | 7.0 | 0.03 | 0.32 | 0.32 | 92 | 1013.0 |
| 20260509230534 | 46 | 62 | 2.0 | 5.0 | 0.03 | 0.32 | 0.32 | 91 | 1012.9 |
| 20260509230033 | 46 | 54 | 2.0 | 4.0 | 0.04 | 0.32 | 0.32 | 92 | 1012.9 |
| 20260509225536 | 46 | 45 | 2.0 | 4.0 | 0.03 | 0.31 | 0.31 | 92 | 1012.9 |
| 20260509225032 | 46 | 44 | 1.0 | 4.0 | 0.04 | 0.31 | 0.31 | 92 | 1013.0 |
| 20260509224535 | 46 | 43 | 2.0 | 4.0 | 0.04 | 0.31 | 0.31 | 91 | 1013.1 |
| 20260509224035 | 46 | 43 | 0.0 | 4.0 | 0.05 | 0.31 | 0.31 | 91 | 1013.3 |
| 20260509223532 | 46 | 43 | 0.0 | 4.0 | 0.06 | 0.31 | 0.31 | 91 | 1013.3 |
| 20260509223038 | 46 | 52 | 0.0 | 3.0 | 0.05 | 0.30 | 0.30 | 91 | 1013.1 |
| 20260509222537 | 46 | 52 | 1.0 | 3.0 | 0.07 | 0.30 | 0.30 | 91 | 1013.3 |
| 20260509222035 | 46 | 51 | 0.0 | 3.0 | 0.07 | 0.30 | 0.30 | 91 | 1013.4 |
| 20260509221533 | 46 | 52 | 0.0 | 2.0 | 0.09 | 0.30 | 0.30 | 92 | 1013.4 |
| 20260509221031 | 46 | 52 | 0.0 | 2.0 | 0.09 | 0.28 | 0.28 | 91 | 1013.4 |
| 20260509220530 | 46 | 52 | 0.0 | 3.0 | 0.10 | 0.28 | 0.28 | 91 | 1013.4 |
| 20260509220030 | 46 | 52 | 0.0 | 3.0 | 0.09 | 0.28 | 0.28 | 91 | 1013.3 |
| 20260509215533 | 46 | 52 | 0.0 | 4.0 | 0.10 | 0.28 | 0.28 | 91 | 1013.4 |
| 20260509215031 | 46 | 52 | 1.0 | 4.0 | 0.09 | 0.27 | 0.27 | 91 | 1013.3 |
| 20260509214531 | 46 | 52 | 1.0 | 6.0 | 0.09 | 0.27 | 0.27 | 91 | 1013.4 |
| 20260509214031 | 46 | 53 | 1.0 | 6.0 | 0.08 | 0.26 | 0.26 | 91 | 1013.4 |
| 20260509213530 | 46 | 41 | 0.0 | 5.0 | 0.07 | 0.25 | 0.25 | 91 | 1013.6 |
| 20260509213029 | 46 | 42 | 1.0 | 6.0 | 0.07 | 0.25 | 0.25 | 91 | 1013.6 |
| 20260509212528 | 46 | 66 | 0.0 | 6.0 | 0.05 | 0.23 | 0.23 | 91 | 1013.7 |
| 20260509212026 | 46 | 66 | 1.0 | 8.0 | 0.05 | 0.23 | 0.23 | 91 | 1013.6 |
| 20260509211526 | 46 | 66 | 3.0 | 8.0 | 0.03 | 0.21 | 0.21 | 91 | 1013.4 |
| 20260509211025 | 46 | 84 | 2.0 | 5.0 | 0.02 | 0.19 | 0.19 | 91 | 1013.4 |
| 20260509210525 | 47 | 93 | 0.0 | 4.0 | 0.02 | 0.19 | 0.19 | 91 | 1013.4 |
| 20260509210031 | 47 | 93 | 0.0 | 7.0 | 0.01 | 0.18 | 0.18 | 91 | 1013.4 |
| 20260509205524 | 47 | 94 | 4.0 | 11.0 | 0.01 | 0.18 | 0.18 | 90 | 1013.3 |
| 20260509205028 | 47 | 97 | 2.0 | 11.0 | 0.01 | 0.18 | 0.18 | 91 | 1013.4 |
| 20260509204524 | 47 | 73 | 2.0 | 9.0 | 0.01 | 0.18 | 0.18 | 91 | 1013.4 |
| 20260509204024 | 47 | 73 | 4.0 | 9.0 | 0.01 | 0.18 | 0.18 | 91 | 1013.4 |
| 20260509203524 | 47 | 65 | 1.0 | 5.0 | 0.01 | 0.18 | 0.18 | 90 | 1013.5 |
| 20260509203025 | 47 | 54 | 2.0 | 8.0 | 0.01 | 0.18 | 0.18 | 90 | 1013.4 |
| 20260509202524 | 47 | 96 | 3.0 | 6.0 | 0.01 | 0.18 | 0.18 | 90 | 1013.5 |
| 20260509202024 | 47 | 93 | 2.0 | 6.0 | 0.01 | 0.18 | 0.18 | 90 | 1013.6 |
| 20260509201526 | 47 | 66 | 1.0 | 9.0 | 0.01 | 0.18 | 0.18 | 90 | 1013.7 |
| 20260509201026 | 47 | 83 | 3.0 | 9.0 | 0.00 | 0.17 | 0.17 | 90 | 1013.8 |
| 20260509200523 | 47 | 73 | 1.0 | 5.0 | 0.00 | 0.17 | 0.17 | 90 | 1013.7 |
| 20260509200023 | 47 | 56 | 2.0 | 5.0 | 0.00 | 0.17 | 0.17 | 90 | 1013.7 |
| 20260509195523 | 47 | 56 | 2.0 | 5.0 | 0.00 | 0.17 | 0.17 | 91 | 1013.5 |
| 20260509195022 | 47 | 54 | 2.0 | 9.0 | 0.00 | 0.17 | 0.17 | 91 | 1013.3 |
| 20260509194525 | 47 | 66 | 4.0 | 9.0 | 0.00 | 0.17 | 0.17 | 91 | 1013.2 |
| 20260509194023 | 48 | 92 | 3.0 | 8.0 | 0.00 | 0.17 | 0.17 | 91 | 1013.1 |
| 20260509193522 | 48 | 57 | 2.0 | 8.0 | 0.00 | 0.17 | 0.17 | 91 | 1012.8 |
| 20260509193022 | 48 | 54 | 2.0 | 9.0 | 0.00 | 0.17 | 0.17 | 91 | 1012.7 |
| 20260509192520 | 48 | 41 | 2.0 | 9.0 | 0.00 | 0.17 | 0.17 | 90 | 1013.5 |
| 20260509192021 | 48 | 64 | 4.0 | 8.0 | 0.00 | 0.17 | 0.17 | 91 | 1013.3 |
| 20260509191521 | 48 | 62 | 2.0 | 10.0 | 0.00 | 0.17 | 0.17 | 91 | 1013.3 |
| 20260509191023 | 47 | 71 | 3.0 | 10.0 | 0.01 | 0.17 | 0.17 | 91 | 1013.0 |
| 20260509190519 | 48 | 51 | 3.0 | 10.0 | 0.01 | 0.17 | 0.17 | 91 | 1013.1 |
| 20260509190018 | 48 | 84 | 2.0 | 8.0 | 0.02 | 0.17 | 0.17 | 90 | 1013.6 |
| 20260509185522 | 48 | 87 | 2.0 | 8.0 | 0.02 | 0.17 | 0.17 | 91 | 1013.6 |
| 20260509185018 | 48 | 39 | 3.0 | 10.0 | 0.02 | 0.17 | 0.17 | 91 | 1013.7 |
| 20260509184524 | 47 | 97 | 5.0 | 10.0 | 0.02 | 0.17 | 0.17 | 91 | 1013.7 |
| 20260509184015 | 47 | 83 | 3.0 | 6.0 | 0.02 | 0.17 | 0.17 | 91 | 1013.9 |
| 20260509183515 | 47 | 68 | 2.0 | 4.0 | 0.03 | 0.17 | 0.17 | 90 | 1014.2 |
| 20260509183015 | 47 | 70 | 0.0 | 5.0 | 0.03 | 0.17 | 0.17 | 90 | 1014.1 |
| 20260509182514 | 47 | 70 | 1.0 | 5.0 | 0.04 | 0.17 | 0.17 | 91 | 1014.1 |
| 20260509182013 | 47 | 64 | 3.0 | 5.0 | 0.04 | 0.17 | 0.17 | 90 | 1014.1 |
| 20260509181513 | 47 | 62 | 0.0 | 4.0 | 0.04 | 0.17 | 0.17 | 90 | 1014.3 |
| 20260509181013 | 47 | 62 | 0.0 | 5.0 | 0.03 | 0.16 | 0.16 | 90 | 1014.2 |
| 20260509180513 | 47 | 64 | 0.0 | 5.0 | 0.04 | 0.16 | 0.16 | 90 | 1014.4 |
| 20260509180013 | 47 | 63 | 0.0 | 4.0 | 0.03 | 0.15 | 0.15 | 90 | 1014.4 |
| 20260509175513 | 47 | 63 | 0.0 | 5.0 | 0.04 | 0.15 | 0.15 | 90 | 1014.2 |
| 20260509175014 | 47 | 62 | 1.0 | 5.0 | 0.04 | 0.15 | 0.15 | 90 | 1014.3 |
| 20260509174513 | 47 | 53 | 2.0 | 5.0 | 0.05 | 0.15 | 0.15 | 90 | 1014.2 |
| 20260509174015 | 47 | 52 | 0.0 | 3.0 | 0.06 | 0.15 | 0.15 | 90 | 1014.4 |
| 20260509173511 | 47 | 52 | 1.0 | 4.0 | 0.05 | 0.14 | 0.14 | 90 | 1014.6 |
| 20260509173035 | 47 | 52 | 1.0 | 5.0 | 0.04 | 0.13 | 0.13 | 89 | 1014.9 |
| 20260509172511 | 47 | 52 | 0.0 | 5.0 | 0.04 | 0.13 | 0.13 | 89 | 1014.8 |
| 20260509172011 | 47 | 64 | 1.0 | 4.0 | 0.05 | 0.13 | 0.13 | 89 | 1014.8 |
| 20260509171522 | 47 | 62 | 0.0 | 4.0 | 0.05 | 0.13 | 0.13 | 90 | 1014.8 |
| 20260509171010 | 47 | 62 | 1.0 | 4.0 | 0.06 | 0.13 | 0.13 | 90 | 1014.9 |